This is the latest recevied weather packets stored in our database for station/object EB2EMZ-14. If no packets are shown the sender has not sent any weather packets the latest 1 day(s).
| Time | Temp. | Humidity | Pressure | Rain* | Wind** | Luminosity | Snow |
|---|---|---|---|---|---|---|---|
| 1777967109 | 15° C | 75% | 1012 hPa | 0 mm | 0 m/s | 0 W/m² | - |
| 1777966810 | 15° C | 76% | 1011.9 hPa | 0 mm | 0 m/s | 0 W/m² | - |
| 1777966509 | 14.44° C | 77% | 1011.9 hPa | 0 mm | 0 m/s | 0 W/m² | - |
| 1777966209 | 14.44° C | 77% | 1012 hPa | 0 mm | 0 m/s | 0 W/m² | - |
| 1777965909 | 14.44° C | 79% | 1012 hPa | 0 mm | 0 m/s | 0 W/m² | - |
| 1777965609 | 14.44° C | 82% | 1012.1 hPa | 0 mm | 0 m/s | 0 W/m² | - |
| 1777965309 | 13.89° C | 86% | 1012.1 hPa | 0 mm | 0 m/s | 0 W/m² | - |
| 1777965009 | 12.22° C | 91% | 1012 hPa | 0 mm | 0 m/s | 0 W/m² | - |
| 1777964710 | 11.11° C | 90% | 1011.9 hPa | 0 mm | 0 m/s | 0 W/m² | - |
| 1777964409 | 10.56° C | 90% | 1011.9 hPa | 0 mm | 0 m/s | 0 W/m² | - |
| 1777964108 | 10.56° C | 90% | 1012 hPa | 0 mm | 0 m/s | 0 W/m² | - |
| 1777963810 | 10° C | 90% | 1011.9 hPa | 0 mm | 0 m/s | 0 W/m² | - |
| 1777963509 | 10° C | 90% | 1011.9 hPa | 0 mm | 0 m/s | 0 W/m² | - |
| 1777963210 | 10° C | 91% | 1012 hPa | 0 mm | 0 m/s | 0 W/m² | - |
| 1777962909 | 10° C | 91% | 1012 hPa | 0 mm | 0 m/s | 0 W/m² | - |
| 1777962608 | 9.44° C | 92% | 1011.9 hPa | 0 mm | 0 m/s | 0 W/m² | - |
| 1777962309 | 8.89° C | 92% | 1011.9 hPa | 0 mm | 0 m/s | 0 W/m² | - |
| 1777962009 | 8.33° C | 91% | 1011.8 hPa | 0 mm | 0 m/s | 0 W/m² | - |
| 1777961709 | 8.33° C | 91% | 1011.8 hPa | 0 mm | 0 m/s | 0 W/m² | - |
| 1777961409 | 7.78° C | 91% | 1011.6 hPa | 0 mm | 0 m/s | 0 W/m² | - |
| 1777961108 | 7.78° C | 91% | 1011.6 hPa | 0 mm | 0 m/s | 0 W/m² | - |
| 1777960808 | 7.78° C | 90% | 1011.7 hPa | 0 mm | 0 m/s | 0 W/m² | - |
| 1777960508 | 7.22° C | 90% | 1011.6 hPa | 0.51 mm | 0 m/s | 0 W/m² | - |
| 1777959908 | 7.22° C | 90% | 1011.6 hPa | 0.51 mm | 0 m/s | 0 W/m² | - |
| 1777959608 | 7.22° C | 90% | 1011.8 hPa | 0.51 mm | 0 m/s | 0 W/m² | - |
* Rain latest hour (hover to see other rain measurements)
** Current wind speed in m/s (hover to see current wind gust speed)